Location: Erfurt
(50.9688°N, 11.0193°E)
Time: 09:27:40
(UTC+01:00)

Envisat - Visible Passes

Search period start: 22 February 2018 00:00
Search period end: 04 March 2018 00:00
Orbit: 764 x 766 km, 98.2° (Epoch: 21 February)

Date Brightness Start Highest point End Pass type
(mag) Time Alt. Az. Time Alt. Az. Time Alt. Az.
22 Feb 2.9 19:19:05 10° SSE 19:24:08 72° ENE 19:29:14 10° N visible
22 Feb 5.5 21:00:09 10° SW 21:03:42 19° W 21:07:17 10° NW visible
23 Feb 3.5 18:42:55 10° SE 18:47:34 38° ENE 18:52:14 10° N visible
23 Feb 4.4 20:21:56 10° SSW 20:26:37 36° W 20:31:19 10° NNW visible
24 Feb 3.2 19:44:39 10° S 19:49:43 72° WSW 19:54:50 10° NNW visible
24 Feb 5.9 21:28:04 10° WSW 21:29:41 11° W 21:31:18 10° WNW visible
25 Feb 3.0 19:08:02 10° SSE 19:13:01 59° ENE 19:18:02 10° N visible
25 Feb 5.2 20:48:27 10° SW 20:52:26 23° W 20:56:27 10° NW visible
26 Feb 3.7 18:32:04 10° ESE 18:36:30 32° ENE 18:40:58 10° N visible
26 Feb 4.1 20:10:34 10° S 20:15:24 44° W 20:20:18 10° NNW visible
27 Feb 3.0 19:33:29 10° SSE 19:38:35 87° WSW 19:43:42 10° NNW visible
27 Feb 5.8 21:15:41 10° WSW 21:18:22 14° W 21:21:03 10° NW visible
28 Feb 3.2 18:57:03 10° SE 19:01:56 49° ENE 19:06:50 10° N visible
28 Feb 4.9 20:36:52 10° SSW 20:41:11 28° W 20:45:33 10° NW visible
01 Mar 4.0 18:21:17 10° ESE 18:25:28 27° ENE 18:29:41 10° N visible
01 Mar 3.7 19:59:15 10° S 20:04:13 54° W 20:09:14 10° NNW visible
02 Mar 2.9 19:22:22 10° SSE 19:27:26 78° ENE 19:32:33 10° NNW visible
02 Mar 5.6 21:03:44 10° SW 21:07:04 17° W 21:10:26 10° NW visible
03 Mar 3.4 18:46:08 10° SE 18:50:51 40° ENE 18:55:36 10° N visible
03 Mar 4.6 20:25:22 10° SSW 20:29:57 34° W 20:34:35 10° NNW visible
